Regional Weather Roundup
Issued by NWS

Home | Current Version | Previous Version | Graphics & Text | Print | Product List | Glossary On
Versions: 1 2 3 4 5 6 7 8 9 10 11 12 13 14 15 16 17 18 19 20 21 22 23 24 25 26 27 28 29 30 31 32 33 34 35 36 37 38 39 40 41 42 43 44 45 46 47 48 49 50
403
ASUS45 KCYS 270110
RWRWY

WYOMING REGIONAL WEATHER ROUNDUP
NATIONAL WEATHER SERVICE CHEYENNE WY
700 PM MDT SAT MAY 26 2018

NOTE:  "FAIR" INDICATES FEW OR NO CLOUDS BELOW 12,000 FEET
WITH NO SIGNIFICANT WEATHER AND/OR OBSTRUCTIONS TO VISIBILITY.

WYZ001-270200-
YELLOWSTONE NATIONAL PARK

CITY           SKY/WX    TMP DP  RH WIND       PRES   REMARKS
LK YELLOWSTONE   N/A     53  34  48 W5        30.05R
W YELLOWSTONE  NOT AVBL

$$
WYZ002>013-054>058-071-098>099-270200-
NORTHERN WYOMING

CITY           SKY/WX    TMP DP  RH WIND       PRES   REMARKS
JACKSON        FAIR      60  41  49 NE20      29.92R
CODY           FAIR      67  44  43 N7        29.85R
GREYBULL       FAIR      83  55  38 NW23G29   29.67F
WORLAND        FAIR      85  43  22 E7        29.68F
SHERIDAN       FAIR      78  61  55 NW18      29.75R
BUFFALO        FAIR      76  54  46 NW13G20   29.80S
GILLETTE       FAIR      84  40  21 SW8       29.73F
NEWCASTLE      FAIR      84  41  21 CALM      29.78S

$$
WYZ014>020-022>026-101>103-270200-
CENTRAL WYOMING

CITY           SKY/WX    TMP DP  RH WIND       PRES   REMARKS
BIG PINEY      FAIR      69  31  24 N16       29.88S
PINEDALE       FAIR      68  32  26 W5        29.90S
DUBOIS         FAIR      70  19  14 S14G20    29.91R
LANDER         FAIR      78  33  19 SW6       29.77F
RIVERTON       FAIR      81  30  15 SW8       29.77S
CASPER         FAIR      80  39  23 E14       29.78S
DOUGLAS        FAIR      73  51  46 E7        29.78F

$$
WYZ021-027>030-104>119-270200-
SOUTHERN WYOMING

CITY           SKY/WX    TMP DP  RH WIND       PRES   REMARKS
EVANSTON       FAIR      68  35  29 NW20G25   29.88S
FORT BRIDGER   FAIR      75  11   9 SE21G28   29.88F
ROCK SPRINGS   FAIR      77  11   8 SW18      29.83F
DIXON          FAIR      82  19   9 SE9       29.86S
RAWLINS        FAIR      79  15   9 SW10      29.86F
SARATOGA       FAIR      79  18  10 SW6       29.88S
LARAMIE        FAIR      72  38  29 SE13      29.94F
CHEYENNE       FAIR      75  47  36 SE6       29.87F
TORRINGTON     NOT AVBL
PINE BLUFFS    FAIR      73  46  38 SE7       29.81F

$$




USA.gov is the U.S. government's official web portal to all federal, state and local government web resources and services.